This is the latest recevied weather packets stored in our database for station/object NE1CU. If no packets are shown the sender has not sent any weather packets the latest 10 day(s).
| Time | Temp. | Humidity | Pressure | Rain* | Wind** | Luminosity | Snow |
|---|---|---|---|---|---|---|---|
| 1777722277 | 10° C | 89% | 1011.6 hPa | 0 mm | - | 89 W/m² | - |
| 1777721975 | 10° C | 89% | 1011.5 hPa | 0 mm | - | 111 W/m² | - |
| 1777721672 | 10° C | 89% | 1011.3 hPa | 0 mm | - | 79 W/m² | - |
| 1777721371 | 10° C | 89% | 1011.3 hPa | 0 mm | - | 54 W/m² | - |
| 1777721068 | 10° C | 88% | 1011.6 hPa | 1.78 mm | - | 36 W/m² | - |
| 1777720765 | 10° C | 88% | 1011.4 hPa | 1.78 mm | - | 43 W/m² | - |
| 1777720462 | 10° C | 87% | 1012 hPa | 0 mm | - | 17 W/m² | - |
| 1777720160 | 10° C | 87% | 1012.1 hPa | 0 mm | - | 11 W/m² | - |
| 1777719858 | 10° C | 87% | 1012.2 hPa | 0 mm | - | 32 W/m² | - |
| 1777719554 | 10° C | 88% | 1011.9 hPa | 0 mm | - | 42 W/m² | - |
| 1777719252 | 9.44° C | 88% | 1011.8 hPa | 0 mm | - | 26 W/m² | - |
| 1777718950 | 9.44° C | 88% | 1011.8 hPa | 0 mm | - | 15 W/m² | - |
| 1777718646 | 9.44° C | 89% | 1011.9 hPa | 0 mm | - | 6 W/m² | - |
| 1777718344 | 9.44° C | 89% | 1012 hPa | 0 mm | - | 10 W/m² | - |
| 1777718041 | 9.44° C | 90% | 1012 hPa | 0 mm | - | 28 W/m² | - |
| 1777717738 | 9.44° C | 90% | 1011.9 hPa | 0 mm | - | 16 W/m² | - |
| 1777717435 | 9.44° C | 90% | 1012 hPa | 0 mm | - | 9 W/m² | - |
| 1777717132 | 9.44° C | 90% | 1011.7 hPa | 0 mm | - | 15 W/m² | - |
| 1777716830 | 9.44° C | 90% | 1011.6 hPa | 0 mm | - | 7 W/m² | - |
| 1777716528 | 9.44° C | 90% | 1011.8 hPa | 0 mm | - | 5 W/m² | - |
| 1777716227 | 9.44° C | 90% | 1011.6 hPa | 0 mm | - | 3 W/m² | - |
| 1777715924 | 9.44° C | 90% | 1011.3 hPa | 0 mm | - | 3 W/m² | - |
| 1777715622 | 9.44° C | 90% | 1011.3 hPa | 0 mm | - | 3 W/m² | - |
| 1777715320 | 9.44° C | 90% | 1011.4 hPa | 0 mm | - | 2 W/m² | - |
| 1777715017 | 9.44° C | 90% | 1011.5 hPa | 0 mm | - | 1 W/m² | - |
* Rain latest hour (hover to see other rain measurements)
** Current wind speed in m/s (hover to see current wind gust speed)